M I D A S
Marine Information and Data Acquisition System
Tripno 1281 of the Zeeleeuw from 2007-05-31 07:14:18 to 2007-05-31 14:33:15
Back to CruiseResearch ActivitiesStationsMapUnderway DataData graphs

EquipmentUnitsComment
TimeDGPSUTC
LatitudeDGPSDM.mWGS84
LongitudeDGPSDM.mWGS84
TemperatureSBE03/SBE38deg celciusITS90
ConductivitySBE21S/mITS90
SalinitySBE21 Practical Salinity Units
ChlorophylAChelsea fluorimeterg/lCalibrated in Aceton
Missing or incorrect values are displayed as -999
Sea surface data collected by the RV Zeeleeuw from 2007-05-31 07:16:55 to 2007-05-31 14:42:46
Time Latitude Longitude Temperature Conductivity Salinity ChlorophylA
2007-05-31 07:18:00 51°13.613 2°56.04 20.0456 0.067045 0.357021 -2.871232
2007-05-31 07:19:00 51°13.65 2°55.94 20.0666 0.067045 0.357034 -2.871232
2007-05-31 07:20:00 51°13.683 2°55.837 20.0612 0.067045 0.357048 -2.871232
2007-05-31 07:21:00 51°13.69 2°55.756 20.0568 0.067045 0.357061 -2.871232
2007-05-31 07:22:00 51°13.69 2°55.722 20.1 0.067045 0.357068 -2.871232
2007-05-31 07:23:00 51°13.712 2°55.728 20.1203 0.067045 0.357089 -2.871232
2007-05-31 07:24:00 51°13.775 2°55.679 20.0323 0.067045 0.357082 -2.871232
2007-05-31 07:25:00 51°13.903 2°55.584 20.0035 0.067045 0.357102 -2.871232
2007-05-31 07:26:00 51°14.038 2°55.486 20.0608 0.067045 0.357123 -2.871232
2007-05-31 07:27:00 51°14.15 2°55.399 20.1429 0.067045 0.357136 -2.871232
2007-05-31 07:28:00 51°14.264 2°55.259 20.1315 0.067045 0.357102 -2.871232
2007-05-31 07:28:59 51°14.374 2°55.041 20.0932 0.067045 0.357143 -2.871232
2007-05-31 07:30:00 51°14.483 2°54.758 20.0803 0.067045 0.357197 -2.871232
2007-05-31 07:31:00 51°14.594 2°54.447 20.0821 0.067045 0.357177 -2.871232
2007-05-31 07:32:00 51°14.69 2°54.125 20.1257 0.066942 0.356632 -2.871232
2007-05-31 07:33:00 51°14.718 2°53.765 20.0776 0.067045 0.357204 -2.871232
2007-05-31 07:34:00 51°14.751 2°53.404 20.0601 0.067045 0.357231 -2.871232
2007-05-31 07:35:00 51°14.776 2°53.043 20.0577 0.066942 0.35668 -2.871232
2007-05-31 07:35:59 51°14.789 2°52.682 20.0741 0.066942 0.356707 -2.871232
2007-05-31 07:37:00 51°14.793 2°52.301 20.0903 0.066942 0.356734 -2.871232
2007-05-31 07:38:00 51°14.795 2°51.922 20.0629 0.066942 0.356748 -2.871232
2007-05-31 07:39:00 51°14.802 2°51.545 20.0655 0.066942 0.356782 -2.871232
2007-05-31 07:40:00 51°14.807 2°51.165 20.0817 0.066942 0.356802 -2.871232
2007-05-31 07:41:00 51°14.808 2°50.786 20.1221 0.066942 0.356843 -2.871232
2007-05-31 07:42:00 51°14.757 2°50.413 20.1096 0.066942 0.356863 -2.871232
2007-05-31 07:43:00 51°14.703 2°50.038 20.1322 0.066942 0.356891 -2.871232
2007-05-31 07:44:00 51°14.652 2°49.664 20.1216 0.066942 0.356918 -2.871232
2007-05-31 07:45:00 51°14.6 2°49.29 20.1133 0.066942 0.356945 -2.871232
2007-05-31 07:46:00 51°14.55 2°48.913 20.1199 0.066942 0.356972 -2.871232
2007-05-31 07:47:00 51°14.499 2°48.535 20.1059 0.066942 0.357 -2.871232
2007-05-31 07:48:00 51°14.442 2°48.161 20.149 0.066942 0.357027 -2.871232
2007-05-31 07:49:00 51°14.384 2°47.79 20.136 0.066942 0.357054 -2.871232
2007-05-31 07:49:59 51°14.327 2°47.428 20.1429 0.066942 0.357081 -2.871232
2007-05-31 07:51:00 51°14.27 2°47.058 20.1373 0.066942 0.357109 -2.871232
2007-05-31 07:51:59 51°14.219 2°46.698 20.1786 0.066942 0.357136 -2.871232
2007-05-31 07:53:00 51°14.15 2°46.328 20.1705 0.066942 0.357163 -2.871232
2007-05-31 07:54:00 51°14.082 2°45.962 20.1544 0.066942 0.35719 -2.871232
2007-05-31 07:54:59 51°14.014 2°45.603 20.179 0.066942 0.357218 -2.871232
2007-05-31 07:56:00 51°13.943 2°45.232 20.1951 0.066839 0.356686 -2.871232
2007-05-31 07:56:59 51°13.875 2°44.874 20.2144 0.066839 0.356713 -2.871232
2007-05-31 07:58:00 51°13.805 2°44.507 20.2115 0.066839 0.356733 -2.871232
2007-05-31 07:58:59 51°13.739 2°44.16 20.2246 0.066839 0.356767 -2.871232
2007-05-31 07:59:59 51°13.674 2°43.811 20.2246 0.066839 0.356788 -2.871232
2007-05-31 08:01:00 51°13.614 2°43.445 20.2351 0.066839 0.356822 -2.871232
2007-05-31 08:02:00 51°13.549 2°43.085 20.2478 0.066839 0.356856 -2.871232
2007-05-31 08:03:00 51°13.484 2°42.726 20.2273 0.066839 0.356883 -2.871232
2007-05-31 08:03:59 51°13.418 2°42.372 20.2725 0.066839 0.356917 -2.871232
2007-05-31 08:05:00 51°13.346 2°42.004 20.2648 0.066839 0.356945 -2.871232
2007-05-31 08:06:00 51°13.277 2°41.639 20.2885 0.066839 0.356979 -2.871232
2007-05-31 08:07:00 51°13.207 2°41.275 20.2843 0.066839 0.357006 -2.871232
2007-05-31 08:08:00 51°13.136 2°40.911 20.2743 0.066839 0.35704 -2.871232
2007-05-31 08:09:00 51°13.066 2°40.547 20.3033 0.066839 0.357074 -2.871232
2007-05-31 08:10:00 51°12.993 2°40.185 20.3151 0.066736 0.356542 -2.871232
2007-05-31 08:11:00 51°12.907 2°39.83 20.3281 0.066839 0.357136 -2.871232
2007-05-31 08:12:00 51°12.782 2°39.506 20.3035 0.066736 0.356596 -2.871232
2007-05-31 08:13:00 51°12.647 2°39.192 20.3499 0.066736 0.356637 -2.871232
2007-05-31 08:14:00 51°12.488 2°38.909 20.3207 0.066839 0.357225 -2.871232
2007-05-31 08:14:59 51°12.333 2°38.631 20.3512 0.066736 0.356685 -2.871232
2007-05-31 08:16:00 51°12.174 2°38.344 20.3411 0.066736 0.356719 -2.871232
2007-05-31 08:17:00 51°12.018 2°38.062 20.3445 0.066736 0.356746 -2.871232
2007-05-31 08:18:00 51°11.862 2°37.781 20.3804 0.066736 0.356781 -2.871232
2007-05-31 08:19:00 51°11.689 2°37.528 20.371 0.066736 0.356808 -2.871232
2007-05-31 08:19:59 51°11.515 2°37.286 20.3717 0.066736 0.356835 -2.871232
2007-05-31 08:21:00 51°11.32 2°37.07 20.3769 0.066736 0.356862 -2.871232
2007-05-31 08:22:00 51°11.116 2°36.884 20.3905 0.066736 0.356897 -2.871232
2007-05-31 08:23:00 51°10.9 2°36.767 20.4083 0.066736 0.356938 -2.871232
2007-05-31 08:24:00 51°10.689 2°36.858 20.4129 0.066736 0.356972 -2.871232
2007-05-31 08:25:00 51°10.505 2°37.046 20.3836 0.066736 0.356979 -2.871232
2007-05-31 08:26:00 51°10.287 2°37.17 20.4206 0.066736 0.357027 -2.871232
2007-05-31 08:27:00 51°10.06 2°37.221 20.4464 0.066736 0.357074 -2.871232
2007-05-31 08:28:00 51°9.834 2°37.271 20.4326 0.066736 0.357122 -2.871232
2007-05-31 08:29:00 51°9.606 2°37.325 20.4471 0.066633 0.356596 -2.871232
2007-05-31 08:30:00 51°9.395 2°37.381 20.4734 0.066633 0.356643 -2.871232
2007-05-31 08:30:59 51°9.318 2°37.469 20.5004 0.066633 0.356705 -2.871232
2007-05-31 08:32:00 51°9.347 2°37.544 20.4957 0.066633 0.356732 -2.871232
2007-05-31 08:33:00 51°9.384 2°37.557 20.4964 0.066633 0.356746 -2.871232
2007-05-31 08:34:00 51°9.412 2°37.555 20.5036 0.066633 0.356787 -2.871232
2007-05-31 08:35:00 51°9.433 2°37.545 20.5072 0.066633 0.356828 -2.871232
2007-05-31 08:35:59 51°9.451 2°37.531 20.5217 0.066633 0.356855 -2.871232
2007-05-31 08:37:00 51°9.509 2°37.523 20.5131 0.066633 0.356883 -2.871232
2007-05-31 08:38:00 51°9.558 2°37.579 20.529 0.066633 0.35691 -2.871232
2007-05-31 08:39:00 51°9.573 2°37.653 20.5258 0.066633 0.356938 -2.871232
2007-05-31 08:40:00 51°9.564 2°37.738 20.5438 0.06653 0.35639 -2.871232
2007-05-31 08:41:00 51°9.559 2°37.825 20.545 0.06653 0.35641 -2.871232
2007-05-31 08:42:00 51°9.558 2°37.914 20.5351 0.06653 0.356431 -2.871232
2007-05-31 08:43:00 51°9.553 2°38.004 20.5601 0.06653 0.356458 -2.871232
2007-05-31 08:44:00 51°9.543 2°38.09 20.5714 0.06653 0.356486 -2.871232
2007-05-31 08:45:00 51°9.539 2°38.175 20.5808 0.06653 0.356513 -2.871232
2007-05-31 08:46:00 51°9.538 2°38.26 20.5797 0.06653 0.356533 -2.871232
2007-05-31 08:47:00 51°9.538 2°38.346 20.5792 0.06653 0.356561 -2.871232
2007-05-31 08:48:00 51°9.54 2°38.433 20.6005 0.06653 0.356588 -2.871232
2007-05-31 08:49:00 51°9.542 2°38.52 20.6102 0.06653 0.356616 -2.871232
2007-05-31 08:50:00 51°9.546 2°38.608 20.6189 0.06653 0.356636 -2.871232
2007-05-31 08:51:00 51°9.553 2°38.695 20.6278 0.06653 0.35667 -2.871232
2007-05-31 08:52:00 51°9.561 2°38.781 20.6369 0.06653 0.356691 -2.871232
2007-05-31 08:53:00 51°9.572 2°38.867 20.6259 0.06653 0.356718 -2.871232
2007-05-31 08:54:00 51°9.585 2°38.952 20.6455 0.06653 0.356746 -2.871232
2007-05-31 08:55:00 51°9.599 2°39.037 20.6573 0.06653 0.356773 -2.871232
2007-05-31 08:55:59 51°9.615 2°39.12 20.6558 0.06653 0.356801 -2.871232
2007-05-31 08:57:00 51°9.633 2°39.205 20.6627 0.06653 0.356821 -2.871232
2007-05-31 08:58:00 51°9.651 2°39.29 20.6692 0.06653 0.356849 -2.871232
2007-05-31 08:59:00 51°9.66 2°39.378 20.661 0.06653 0.356876 -2.871232
2007-05-31 09:00:00 51°9.66 2°39.469 20.6803 0.06653 0.356904 -2.871232
2007-05-31 09:01:00 51°9.659 2°39.559 20.6915 0.06653 0.356931 -2.871232
2007-05-31 09:02:00 51°9.662 2°39.65 20.6894 0.066428 0.356382 -2.871232
2007-05-31 09:03:00 51°9.67 2°39.738 20.7007 0.066428 0.356403 -2.871232
2007-05-31 09:04:00 51°9.681 2°39.827 20.7089 0.066428 0.356423 -2.871232
2007-05-31 09:05:00 51°9.692 2°39.916 20.7054 0.066428 0.356451 -2.871232
2007-05-31 09:06:00 51°9.704 2°40.004 20.7063 0.066428 0.356471 -2.871232
2007-05-31 09:07:00 51°9.718 2°40.094 20.7322 0.066428 0.356492 -2.871232
2007-05-31 09:08:00 51°9.733 2°40.182 20.7351 0.066428 0.356519 -2.871232
2007-05-31 09:09:00 51°9.75 2°40.272 20.7325 0.066428 0.35654 -2.871232
2007-05-31 09:10:00 51°9.768 2°40.361 20.7355 0.066428 0.356561 -2.871232
2007-05-31 09:11:00 51°9.786 2°40.45 20.7486 0.066428 0.356581 -2.871232
2007-05-31 09:12:00 51°9.791 2°40.541 20.7579 0.066428 0.356602 -2.871232
2007-05-31 09:13:00 51°9.774 2°40.615 20.7646 0.066428 0.356629 -2.871232
2007-05-31 09:14:00 51°9.744 2°40.648 20.775 0.066428 0.35665 -2.871232
2007-05-31 09:15:00 51°9.714 2°40.655 20.7815 0.066428 0.35667 -2.871232
2007-05-31 09:16:00 51°9.692 2°40.659 20.7939 0.066428 0.356684 -2.871232
2007-05-31 09:17:00 51°9.673 2°40.666 20.7926 0.066428 0.356698 -2.871232
2007-05-31 09:18:00 51°9.652 2°40.674 20.8015 0.066428 0.356712 -2.871232
2007-05-31 09:19:00 51°9.614 2°40.62 20.8095 0.066428 0.356753 -2.871232
2007-05-31 09:20:00 51°9.609 2°40.501 20.8085 0.066428 0.356753 -2.871232
2007-05-31 09:21:00 51°9.661 2°40.396 20.8158 0.066428 0.35678 -2.871232
2007-05-31 09:22:00 51°9.731 2°40.365 20.8331 0.066325 0.356224 -2.871232
2007-05-31 09:23:00 51°9.779 2°40.382 20.8391 0.066428 0.356815 -2.871232
2007-05-31 09:24:00 51°9.814 2°40.413 20.8424 0.066428 0.356828 -2.871232
2007-05-31 09:25:00 51°9.868 2°40.407 20.8446 0.066428 0.356883 -2.871232
2007-05-31 09:26:00 51°9.892 2°40.254 20.8356 0.066428 0.356869 -2.871232
2007-05-31 09:27:00 51°9.894 2°39.952 20.8489 0.066428 0.356869 -2.871232
2007-05-31 09:28:00 51°9.894 2°39.608 20.861 0.066325 0.35632 -2.871232
2007-05-31 09:29:00 51°9.89 2°39.261 20.8692 0.066325 0.356354 -2.871232
2007-05-31 09:30:00 51°9.873 2°38.916 20.8692 0.066428 0.356938 -2.871232
2007-05-31 09:31:00 51°9.855 2°38.571 20.8626 0.066325 0.356389 -2.871232
2007-05-31 09:32:00 51°9.84 2°38.224 20.8884 0.066325 0.356416 -2.871232
2007-05-31 09:33:00 51°9.824 2°37.878 20.876 0.066325 0.356437 -2.871232
2007-05-31 09:34:00 51°9.809 2°37.531 20.903 0.066325 0.356464 -2.871232
2007-05-31 09:35:00 51°9.796 2°37.183 20.9077 0.066325 0.356492 -2.871232
2007-05-31 09:36:00 51°9.781 2°36.837 20.915 0.066325 0.356512 -2.871232
2007-05-31 09:37:00 51°9.765 2°36.492 20.9192 0.066325 0.356533 -2.871232
2007-05-31 09:38:00 51°9.751 2°36.152 20.9248 0.066325 0.356554 -2.871232
2007-05-31 09:39:00 51°9.737 2°35.813 20.9328 0.066325 0.356581 -2.871232
2007-05-31 09:40:00 51°9.748 2°35.475 20.9404 0.066325 0.356595 -2.871232
2007-05-31 09:41:00 51°9.868 2°35.207 20.9291 0.066325 0.356615 -2.871232
2007-05-31 09:42:00 51°10.081 2°35.189 20.9447 0.066325 0.356636 -2.871232
2007-05-31 09:43:00 51°10.285 2°35.354 20.9738 0.066325 0.356643 -2.871232
2007-05-31 09:44:00 51°10.49 2°35.523 20.9699 0.066325 0.35667 -2.871232
2007-05-31 09:45:00 51°10.695 2°35.691 20.9759 0.066325 0.356691 -2.871232
2007-05-31 09:46:00 51°10.9 2°35.857 20.9718 0.066325 0.356705 -2.871232
2007-05-31 09:47:00 51°11.097 2°36.048 20.9866 0.066325 0.356732 -2.871232
2007-05-31 09:48:00 51°11.296 2°36.235 20.9935 0.066325 0.35676 -2.871232
2007-05-31 09:49:00 51°11.494 2°36.42 21.0026 0.066325 0.35678 -2.871232
2007-05-31 09:50:00 51°11.682 2°36.635 21.017 0.066325 0.356808 -2.871232
2007-05-31 09:51:00 51°11.865 2°36.857 21.0119 0.066325 0.356829 -2.871232
2007-05-31 09:52:00 51°12.05 2°37.077 21.0188 0.066325 0.356856 -2.871232
2007-05-31 09:53:00 51°12.234 2°37.297 21.03 0.066222 0.356306 -2.871232
2007-05-31 09:54:00 51°12.42 2°37.511 21.0261 0.066325 0.356898 -2.871232
2007-05-31 09:55:00 51°12.607 2°37.719 21.0314 0.066222 0.356354 -2.871232
2007-05-31 09:56:00 51°12.8 2°37.913 21.0381 0.066222 0.356375 -2.871232
2007-05-31 09:57:00 51°12.994 2°38.109 21.039 0.066222 0.356388 -2.871232
2007-05-31 09:58:00 51°13.189 2°38.307 21.0618 0.066222 0.356409 -2.871232
2007-05-31 09:59:00 51°13.385 2°38.504 21.0515 0.066222 0.35643 -2.871232
2007-05-31 10:00:00 51°13.58 2°38.704 21.0656 0.066222 0.356443 -2.871232
2007-05-31 10:01:00 51°13.773 2°38.909 21.067 0.066222 0.356471 -2.871232
2007-05-31 10:02:00 51°13.975 2°39.06 21.0924 0.066222 0.356512 -2.871232
2007-05-31 10:03:00 51°14.16 2°38.934 21.1112 0.066222 0.356533 -2.871232
2007-05-31 10:04:00 51°14.192 2°38.625 21.0954 0.066222 0.35654 -2.871232
2007-05-31 10:05:00 51°14.082 2°38.336 21.0851 0.066222 0.35654 -2.871232
2007-05-31 10:06:00 51°13.991 2°38.026 21.0989 0.066222 0.356581 -2.871232
2007-05-31 10:07:00 51°13.908 2°37.712 21.1046 0.066222 0.356609 -2.871232
2007-05-31 10:08:00 51°13.828 2°37.395 21.1201 0.066222 0.356636 -2.871232
2007-05-31 10:09:00 51°13.752 2°37.077 21.1235 0.066222 0.356664 -2.871232
2007-05-31 10:10:00 51°13.679 2°36.759 21.1248 0.066222 0.356678 -2.871232
2007-05-31 10:11:00 51°13.608 2°36.443 21.1176 0.066222 0.356712 -2.871232
2007-05-31 10:12:00 51°13.535 2°36.132 21.1343 0.066222 0.356733 -2.871232
2007-05-31 10:13:00 51°13.46 2°35.826 21.1333 0.066222 0.356753 -2.871232
2007-05-31 10:14:00 51°13.387 2°35.523 21.1499 0.066119 0.356209 -2.871232
2007-05-31 10:15:00 51°13.308 2°35.224 21.1585 0.066222 0.356802 -2.871232
2007-05-31 10:16:00 51°13.229 2°34.927 21.1674 0.066119 0.356251 -2.871232
2007-05-31 10:17:00 51°13.151 2°34.629 21.1682 0.066222 0.356857 -2.871232
2007-05-31 10:18:00 51°13.072 2°34.331 21.1732 0.066222 0.356878 -2.871232
2007-05-31 10:19:00 51°12.99 2°34.034 21.1742 0.066119 0.356326 -2.871232
2007-05-31 10:20:00 51°12.908 2°33.737 21.1656 0.066222 0.356919 -2.871232
2007-05-31 10:21:00 51°12.828 2°33.438 21.1718 0.066119 0.356368 -2.871232
2007-05-31 10:22:00 51°12.75 2°33.136 21.1965 0.066119 0.356395 -2.871232
2007-05-31 10:23:00 51°12.672 2°32.832 21.1967 0.066119 0.356416 -2.871232
2007-05-31 10:24:00 51°12.597 2°32.527 21.203 0.066119 0.356437 -2.871232
2007-05-31 10:25:00 51°12.522 2°32.22 21.2178 0.066119 0.356464 -2.871232
2007-05-31 10:26:00 51°12.448 2°31.914 21.2222 0.066119 0.356485 -2.871232
2007-05-31 10:27:00 51°12.371 2°31.609 21.2274 0.066119 0.356506 -2.871232
2007-05-31 10:28:00 51°12.292 2°31.307 21.2122 0.066119 0.356533 -2.871232
2007-05-31 10:29:00 51°12.21 2°31.006 21.2306 0.066119 0.356547 -2.871232
2007-05-31 10:30:00 51°12.131 2°30.706 21.2399 0.066119 0.356575 -2.871232
2007-05-31 10:31:00 51°12.056 2°30.413 21.2281 0.066119 0.356602 -2.871232
2007-05-31 10:32:00 51°11.982 2°30.128 21.2471 0.066119 0.356623 -2.871232
2007-05-31 10:33:00 51°11.906 2°29.843 21.2437 0.066119 0.356644 -2.871232
2007-05-31 10:34:00 51°11.83 2°29.557 21.2473 0.066119 0.356664 -2.871232
2007-05-31 10:35:00 51°11.752 2°29.269 21.2632 0.066119 0.356692 -2.871232
2007-05-31 10:36:00 51°11.674 2°28.979 21.2668 0.066119 0.356706 -2.871232
2007-05-31 10:37:00 51°11.594 2°28.691 21.2741 0.066119 0.356727 -2.871232
2007-05-31 10:38:00 51°11.515 2°28.406 21.2721 0.066119 0.356747 -2.871232
2007-05-31 10:39:00 51°11.441 2°28.119 21.2667 0.066119 0.356761 -2.871232
2007-05-31 10:40:00 51°11.452 2°27.817 21.2657 0.066119 0.356782 -2.871232
2007-05-31 10:41:00 51°11.601 2°27.607 21.2877 0.066119 0.356796 -2.871232
2007-05-31 10:42:00 51°11.8 2°27.487 21.2893 0.066119 0.356816 -2.871232
2007-05-31 10:43:00 51°12 2°27.362 21.31 0.066119 0.356837 -2.871232
2007-05-31 10:44:00 51°12.2 2°27.229 21.285 0.066119 0.356858 -2.871232
2007-05-31 10:45:00 51°12.409 2°27.111 21.3037 0.066119 0.356885 -2.871232
2007-05-31 10:46:00 51°12.627 2°27.068 21.287 0.066119 0.356906 -2.871232
2007-05-31 10:47:00 51°12.819 2°27.303 21.3244 0.066016 0.356375 -2.871232
2007-05-31 10:48:00 51°13.011 2°27.545 21.3073 0.066119 0.356989 -2.871232
2007-05-31 10:49:00 51°13.204 2°27.789 21.329 0.066016 0.356437 -2.871232
2007-05-31 10:50:00 51°13.395 2°28.034 21.3319 0.066016 0.356472 -2.871232
2007-05-31 10:51:00 51°13.587 2°28.274 21.3304 0.066016 0.356492 -2.871232
2007-05-31 10:52:00 51°13.777 2°28.516 21.3358 0.066016 0.356534 -2.871232
2007-05-31 10:53:00 51°13.967 2°28.76 21.3409 0.066016 0.356561 -2.871232
2007-05-31 10:54:00 51°14.159 2°29.002 21.326 0.066016 0.356596 -2.871232
2007-05-31 10:55:00 51°14.35 2°29.245 21.3376 0.066016 0.356624 -2.871232
2007-05-31 10:56:00 51°14.542 2°29.491 21.3557 0.066016 0.356665 -2.871232
2007-05-31 10:57:00 51°14.736 2°29.735 21.359 0.066016 0.356693 -2.871232
2007-05-31 10:58:00 51°14.93 2°29.982 21.3577 0.066016 0.356727 -2.871232
2007-05-31 10:59:00 51°15.125 2°30.228 21.3612 0.066016 0.356762 -2.871232
2007-05-31 11:00:00 51°15.321 2°30.473 21.3633 0.066016 0.35679 -2.871232
2007-05-31 11:01:00 51°15.516 2°30.72 21.3664 0.066016 0.356824 -2.871232
2007-05-31 11:02:00 51°15.711 2°30.967 21.3734 0.066016 0.356859 -2.871232
2007-05-31 11:03:00 51°15.904 2°31.213 21.3629 0.066016 0.356894 -2.871232
2007-05-31 11:04:00 51°16.098 2°31.459 21.3809 0.065913 0.356354 -2.871232
2007-05-31 11:05:00 51°16.278 2°31.725 21.3711 0.065913 0.356382 -2.871232
2007-05-31 11:06:00 51°16.272 2°32.09 21.4055 0.065913 0.356437 -2.871232
2007-05-31 11:07:00 51°16.222 2°32.466 21.39 0.065913 0.356465 -2.871232
2007-05-31 11:08:00 51°16.167 2°32.844 21.4017 0.065913 0.3565 -2.871232
2007-05-31 11:09:00 51°16.102 2°33.22 21.4008 0.065913 0.356521 -2.871232
2007-05-31 11:10:00 51°16.037 2°33.601 21.3938 0.065913 0.356548 -2.871232
2007-05-31 11:11:00 51°15.971 2°33.981 21.4079 0.065913 0.356576 -2.871232
2007-05-31 11:12:00 51°15.908 2°34.358 21.4138 0.065913 0.356597 -2.871232
2007-05-31 11:13:00 51°15.847 2°34.731 21.4179 0.065913 0.356631 -2.871232
2007-05-31 11:14:00 51°15.796 2°35.099 21.4262 0.065913 0.356659 -2.871232
2007-05-31 11:15:00 51°15.743 2°35.465 21.4247 0.065913 0.356694 -2.871232
2007-05-31 11:16:00 51°15.691 2°35.833 21.4287 0.065913 0.356721 -2.871232
2007-05-31 11:17:00 51°15.638 2°36.203 21.4351 0.065913 0.356749 -2.871232
2007-05-31 11:18:00 51°15.585 2°36.574 21.4462 0.065913 0.356784 -2.871232
2007-05-31 11:19:00 51°15.528 2°36.948 21.4452 0.065913 0.356819 -2.871232
2007-05-31 11:20:00 51°15.471 2°37.328 21.4573 0.065913 0.356867 -2.871232
2007-05-31 11:21:00 51°15.413 2°37.709 21.4609 0.06581 0.356327 -2.871232
2007-05-31 11:22:00 51°15.353 2°38.09 21.4407 0.06581 0.356369 -2.871232
2007-05-31 11:23:00 51°15.294 2°38.47 21.4614 0.06581 0.356404 -2.871232
2007-05-31 11:24:00 51°15.237 2°38.846 21.4566 0.06581 0.356438 -2.871232
2007-05-31 11:25:00 51°15.213 2°39.22 21.466 0.06581 0.356494 -2.871232
2007-05-31 11:26:00 51°15.319 2°39.567 21.4772 0.06581 0.356501 -2.871232
2007-05-31 11:27:00 51°15.45 2°39.896 21.5182 0.06581 0.356549 -2.871232
2007-05-31 11:28:00 51°15.655 2°40.095 21.4807 0.06581 0.35657 -2.871232
2007-05-31 11:29:00 51°15.88 2°40.246 21.4729 0.06581 0.356584 -2.871232
2007-05-31 11:30:00 51°16.101 2°40.413 21.4855 0.06581 0.356619 -2.871232
2007-05-31 11:31:00 51°16.32 2°40.59 21.5064 0.06581 0.356646 -2.871232
2007-05-31 11:32:00 51°16.539 2°40.768 21.4918 0.06581 0.356674 -2.871232
2007-05-31 11:33:00 51°16.758 2°40.949 21.5083 0.06581 0.356695 -2.871232
2007-05-31 11:34:00 51°16.978 2°41.131 21.5109 0.06581 0.356723 -2.871232
2007-05-31 11:35:00 51°17.197 2°41.316 21.5117 0.06581 0.356751 -2.871232
2007-05-31 11:36:00 51°17.416 2°41.504 21.5176 0.06581 0.356771 -2.871232
2007-05-31 11:37:00 51°17.637 2°41.693 21.5214 0.06581 0.356799 -2.871232
2007-05-31 11:38:00 51°17.858 2°41.882 21.5243 0.06581 0.356834 -2.871232
2007-05-31 11:39:00 51°18.087 2°42.019 21.5487 0.06581 0.356869 -2.871232
2007-05-31 11:40:00 51°18.29 2°41.896 21.5173 0.06581 0.356883 -2.871232
2007-05-31 11:41:00 51°18.439 2°41.652 21.525 0.065707 0.356314 -2.871232
2007-05-31 11:42:00 51°18.588 2°41.405 21.5441 0.065707 0.356335 -2.871232
2007-05-31 11:43:00 51°18.739 2°41.162 21.5354 0.065707 0.35637 -2.871232
2007-05-31 11:44:00 51°18.897 2°40.932 21.5526 0.065707 0.35639 -2.871232
2007-05-31 11:45:00 51°19.063 2°40.707 21.55 0.065707 0.356418 -2.871232
2007-05-31 11:46:00 51°19.228 2°40.48 21.5535 0.065707 0.356439 -2.871232
2007-05-31 11:47:00 51°19.389 2°40.244 21.548 0.065707 0.35646 -2.871232
2007-05-31 11:48:00 51°19.548 2°39.995 21.5594 0.065707 0.356495 -2.871232
2007-05-31 11:49:00 51°19.708 2°39.742 21.571 0.065707 0.356516 -2.871232
2007-05-31 11:50:00 51°19.869 2°39.49 21.5638 0.065707 0.35655 -2.871232
2007-05-31 11:51:00 51°20.025 2°39.242 21.5758 0.065707 0.356592 -2.871232
2007-05-31 11:52:00 51°20.18 2°38.997 21.5844 0.065707 0.356627 -2.871232
2007-05-31 11:53:00 51°20.341 2°38.763 21.5793 0.065707 0.356669 -2.871232
2007-05-31 11:54:00 51°20.537 2°38.592 21.5956 0.065707 0.356717 -2.871232
2007-05-31 11:55:00 51°20.734 2°38.42 21.5914 0.065707 0.356759 -2.871232
2007-05-31 11:56:00 51°20.929 2°38.246 21.6055 0.065707 0.356808 -2.871232
2007-05-31 11:57:00 51°21.124 2°38.072 21.603 0.065604 0.356273 -2.871232
2007-05-31 11:58:00 51°21.318 2°37.895 21.6046 0.065604 0.356315 -2.871232
2007-05-31 11:59:00 51°21.514 2°37.721 21.6125 0.065604 0.356357 -2.871232
2007-05-31 12:00:00 51°21.736 2°37.625 21.6246 0.065604 0.356405 -2.871232
2007-05-31 12:01:00 51°21.967 2°37.563 21.6288 0.065604 0.356447 -2.871232
2007-05-31 12:02:00 51°22.204 2°37.525 21.6353 0.065604 0.356503 -2.871232
2007-05-31 12:03:00 51°22.443 2°37.489 21.6319 0.065604 0.356538 -2.871232
2007-05-31 12:04:00 51°22.682 2°37.461 21.6204 0.065604 0.356587 -2.871232
2007-05-31 12:05:00 51°22.921 2°37.443 21.6383 0.065604 0.356628 -2.871232
2007-05-31 12:06:00 51°23.156 2°37.425 21.6325 0.065604 0.356677 -2.871232
2007-05-31 12:07:00 51°23.391 2°37.406 21.6581 0.065604 0.356712 -2.871232
2007-05-31 12:08:00 51°23.621 2°37.477 21.6604 0.065604 0.356754 -2.871232
2007-05-31 12:09:00 51°23.807 2°37.724 21.6534 0.065604 0.356796 -2.871232
2007-05-31 12:10:00 51°23.976 2°38.01 21.6665 0.065604 0.356838 -2.871232
2007-05-31 12:11:00 51°24.149 2°38.291 21.6737 0.065501 0.356309 -2.871232
2007-05-31 12:12:00 51°24.318 2°38.579 21.6661 0.065501 0.356344 -2.871232
2007-05-31 12:13:00 51°24.452 2°38.91 21.6618 0.065501 0.356386 -2.871232
2007-05-31 12:14:00 51°24.572 2°39.253 21.6769 0.065501 0.356428 -2.871232
2007-05-31 12:15:00 51°24.662 2°39.619 21.6899 0.065501 0.35647 -2.871232
2007-05-31 12:16:00 51°24.758 2°39.984 21.6856 0.065501 0.356511 -2.871232
2007-05-31 12:17:00 51°24.863 2°40.341 21.6935 0.065501 0.35656 -2.871232
2007-05-31 12:18:00 51°24.972 2°40.698 21.6984 0.065501 0.356602 -2.871232
2007-05-31 12:19:00 51°25.082 2°41.052 21.7025 0.065501 0.356637 -2.871232
2007-05-31 12:20:00 51°25.202 2°41.4 21.6878 0.065501 0.356686 -2.871232
2007-05-31 12:21:00 51°25.323 2°41.745 21.7084 0.065501 0.356728 -2.871232
2007-05-31 12:22:00 51°25.445 2°42.089 21.7098 0.065501 0.356777 -2.871232
2007-05-31 12:23:00 51°25.566 2°42.434 21.7108 0.065501 0.356819 -2.871232
2007-05-31 12:24:00 51°25.685 2°42.781 21.71 0.065399 0.356297 -2.871232
2007-05-31 12:25:00 51°25.803 2°43.133 21.7225 0.065399 0.356338 -2.871232
2007-05-31 12:26:00 51°25.905 2°43.499 21.7244 0.065399 0.356401 -2.871232
2007-05-31 12:27:00 51°25.988 2°43.877 21.738 0.065399 0.35645 -2.871232
2007-05-31 12:28:00 51°26.06 2°44.262 21.7294 0.065399 0.356506 -2.871232
2007-05-31 12:29:00 51°26.13 2°44.646 21.7289 0.065399 0.356562 -2.871232
2007-05-31 12:30:00 51°26.201 2°45.029 21.7386 0.065399 0.356618 -2.871232
2007-05-31 12:31:00 51°26.273 2°45.41 21.746 0.065399 0.356667 -2.871232
2007-05-31 12:32:00 51°26.344 2°45.791 21.7471 0.065399 0.356709 -2.871232
2007-05-31 12:33:00 51°26.415 2°46.17 21.7359 0.065296 0.356179 -2.871232
2007-05-31 12:34:00 51°26.486 2°46.549 21.7461 0.065399 0.3568 -2.871232
2007-05-31 12:35:00 51°26.559 2°46.927 21.769 0.065399 0.356842 -2.871232
2007-05-31 12:36:00 51°26.64 2°47.301 21.7777 0.065296 0.356312 -2.871232
2007-05-31 12:37:00 51°26.719 2°47.676 21.7504 0.065296 0.356354 -2.871232
2007-05-31 12:38:00 51°26.8 2°48.054 21.7641 0.065296 0.356389 -2.871232
2007-05-31 12:39:00 51°26.884 2°48.437 21.7827 0.065296 0.356431 -2.871232
2007-05-31 12:40:00 51°26.968 2°48.823 21.778 0.065296 0.356473 -2.871232
2007-05-31 12:41:00 51°27.055 2°49.209 21.7802 0.065296 0.356508 -2.871232
2007-05-31 12:42:00 51°27.14 2°49.597 21.7875 0.065296 0.356543 -2.871232
2007-05-31 12:43:00 51°27.225 2°49.982 21.8 0.065296 0.356578 -2.871232
2007-05-31 12:44:00 51°27.309 2°50.367 21.8018 0.065296 0.35662 -2.871232
2007-05-31 12:45:00 51°27.39 2°50.752 21.7976 0.065296 0.356655 -2.871232
2007-05-31 12:46:00 51°27.379 2°51.132 21.7933 0.065296 0.356683 -2.871232
2007-05-31 12:47:00 51°27.222 2°51.374 21.7777 0.065296 0.356711 -2.871232
2007-05-31 12:48:00 51°27.019 2°51.438 21.8343 0.065296 0.356732 -2.871232
2007-05-31 12:49:00 51°26.814 2°51.513 21.8216 0.065193 0.356181 -2.871232
2007-05-31 12:50:00 51°26.61 2°51.598 21.8241 0.065296 0.356782 -2.871232
2007-05-31 12:51:00 51°26.405 2°51.69 21.8275 0.065296 0.356796 -2.871232
2007-05-31 12:52:00 51°26.202 2°51.785 21.8384 0.065296 0.356817 -2.871232
2007-05-31 12:53:00 51°26.001 2°51.875 21.8371 0.065296 0.356831 -2.871232
2007-05-31 12:54:00 51°25.798 2°51.959 21.8374 0.065193 0.356272 -2.871232
2007-05-31 12:55:00 51°25.595 2°52.029 21.8466 0.065296 0.356859 -2.871232
2007-05-31 12:56:00 51°25.4 2°51.973 21.857 0.065193 0.356293 -2.871232
2007-05-31 12:57:00 51°25.216 2°51.854 21.8632 0.065193 0.356314 -2.871232
2007-05-31 12:58:00 51°25.036 2°51.724 21.8644 0.065193 0.356328 -2.871232
2007-05-31 12:59:00 51°24.854 2°51.598 21.8608 0.065193 0.356342 -2.871232
2007-05-31 13:00:00 51°24.674 2°51.458 21.872 0.065193 0.356356 -2.871232
2007-05-31 13:01:00 51°24.498 2°51.309 21.8758 0.065193 0.356363 -2.871232
2007-05-31 13:02:00 51°24.323 2°51.162 21.8827 0.065193 0.356384 -2.871232
2007-05-31 13:03:00 51°24.147 2°51.012 21.8881 0.065193 0.356391 -2.871232
2007-05-31 13:04:00 51°23.966 2°50.857 21.8746 0.065193 0.356398 -2.871232
2007-05-31 13:05:00 51°23.785 2°50.706 21.9026 0.065193 0.356419 -2.871232
2007-05-31 13:06:00 51°23.605 2°50.556 21.8978 0.065193 0.356426 -2.871232
2007-05-31 13:07:00 51°23.426 2°50.407 21.8936 0.065193 0.356433 -2.871232
2007-05-31 13:08:00 51°23.246 2°50.258 21.9217 0.065193 0.356447 -2.871232
2007-05-31 13:09:00 51°23.066 2°50.109 21.9206 0.065193 0.356461 -2.871232
2007-05-31 13:10:00 51°22.885 2°49.958 21.8874 0.065193 0.356475 -2.871232
2007-05-31 13:11:00 51°22.704 2°49.808 21.9297 0.065193 0.356482 -2.871232
2007-05-31 13:12:00 51°22.521 2°49.665 21.9127 0.065193 0.356496 -2.871232
2007-05-31 13:13:00 51°22.339 2°49.521 21.9252 0.065193 0.35651 -2.871232
2007-05-31 13:14:00 51°22.155 2°49.376 21.938 0.065193 0.356524 -2.871232
2007-05-31 13:15:00 51°21.972 2°49.229 21.9383 0.065193 0.356531 -2.871232
2007-05-31 13:16:00 51°21.792 2°49.077 21.9408 0.065193 0.356545 -2.871232
2007-05-31 13:17:00 51°21.619 2°48.902 21.9405 0.065193 0.356552 -2.871232
2007-05-31 13:18:00 51°21.447 2°48.725 21.963 0.065193 0.356559 -2.871232
2007-05-31 13:19:00 51°21.276 2°48.542 21.9527 0.065193 0.356573 -2.871232
2007-05-31 13:20:00 51°21.102 2°48.363 21.9707 0.065193 0.356573 -2.871232
2007-05-31 13:21:00 51°20.93 2°48.185 21.9617 0.065193 0.356588 -2.871232
2007-05-31 13:22:00 51°20.758 2°48.006 21.956 0.065193 0.356595 -2.871232
2007-05-31 13:23:00 51°20.586 2°47.824 21.9785 0.065193 0.356602 -2.871232
2007-05-31 13:24:00 51°20.414 2°47.644 21.9591 0.065193 0.356609 -2.871232
2007-05-31 13:25:00 51°20.243 2°47.463 21.9745 0.065193 0.356616 -2.871232
2007-05-31 13:26:00 51°20.071 2°47.281 21.9659 0.065193 0.356623 -2.871232
2007-05-31 13:27:00 51°19.899 2°47.097 21.9883 0.065193 0.356616 -2.871232
2007-05-31 13:28:00 51°19.726 2°46.912 21.9943 0.065193 0.35663 -2.871232
2007-05-31 13:29:00 51°19.551 2°46.734 21.9855 0.065193 0.35663 -2.871232
2007-05-31 13:30:00 51°19.376 2°46.553 22.0064 0.065193 0.356637 -2.871232
2007-05-31 13:31:00 51°19.201 2°46.372 22.0036 0.065193 0.356637 -2.871232
2007-05-31 13:32:00 51°19.026 2°46.189 22.012 0.065193 0.356637 -2.871232
2007-05-31 13:33:00 51°18.851 2°46.006 22.0131 0.065193 0.356644 -2.871232
2007-05-31 13:34:00 51°18.676 2°45.825 22.0273 0.065193 0.356644 -2.871232
2007-05-31 13:35:00 51°18.496 2°45.657 22.0194 0.065193 0.356637 -2.871232
2007-05-31 13:36:00 51°18.318 2°45.486 22.0265 0.065193 0.356637 -2.871232
2007-05-31 13:37:00 51°18.139 2°45.314 22.0502 0.065193 0.356637 -2.871232
2007-05-31 13:38:00 51°17.961 2°45.142 22.0483 0.065193 0.356637 -2.871232
2007-05-31 13:39:00 51°17.782 2°44.971 22.0322 0.065193 0.356644 -2.871232
2007-05-31 13:40:00 51°17.605 2°44.798 22.0264 0.065193 0.356637 -2.871232
2007-05-31 13:41:00 51°17.428 2°44.626 22.0638 0.065193 0.356637 -2.871232
2007-05-31 13:42:00 51°17.25 2°44.451 22.058 0.065193 0.356637 -2.871232
2007-05-31 13:43:00 51°17.068 2°44.287 22.0673 0.065193 0.356637 -2.871232
2007-05-31 13:44:00 51°16.886 2°44.124 22.0607 0.065296 0.357217 -2.871232
2007-05-31 13:45:00 51°16.704 2°43.959 22.0747 0.065193 0.356637 -2.871232
2007-05-31 13:46:00 51°16.522 2°43.795 22.088 0.065193 0.356637 -2.871232
2007-05-31 13:47:00 51°16.335 2°43.643 22.081 0.065193 0.356637 -2.871232
2007-05-31 13:48:00 51°16.147 2°43.492 22.0812 0.065193 0.356637 -2.871232
2007-05-31 13:49:00 51°15.959 2°43.341 22.0804 0.065193 0.35663 -2.871232
2007-05-31 13:50:00 51°15.773 2°43.188 22.0886 0.065193 0.35663 -2.871232
2007-05-31 13:51:00 51°15.585 2°43.036 22.1113 0.065193 0.35663 -2.871232
2007-05-31 13:52:00 51°15.397 2°42.885 22.1103 0.065193 0.35663 -2.871232
2007-05-31 13:53:00 51°15.209 2°42.734 22.0968 0.065193 0.35663 -2.871232
2007-05-31 13:54:00 51°15.02 2°42.584 22.1211 0.065193 0.356623 -2.871232
2007-05-31 13:55:00 51°14.831 2°42.435 22.1286 0.065193 0.356623 -2.871232
2007-05-31 13:56:00 51°14.633 2°42.361 22.1552 0.065193 0.356637 -2.871232
2007-05-31 13:57:00 51°14.461 2°42.543 22.1448 0.065193 0.356637 -2.871232
2007-05-31 13:58:00 51°14.437 2°42.881 22.1288 0.065193 0.356616 -2.871232
2007-05-31 13:59:00 51°14.501 2°43.234 22.1441 0.065193 0.356602 -2.871232
2007-05-31 14:00:00 51°14.548 2°43.595 22.1278 0.065193 0.356602 -2.871232
2007-05-31 14:01:00 51°14.58 2°43.957 22.1509 0.065193 0.356609 -2.871232
2007-05-31 14:02:00 51°14.61 2°44.32 22.1566 0.065193 0.356602 -2.871232
2007-05-31 14:03:00 51°14.634 2°44.683 22.1654 0.065296 0.357182 -2.871232
2007-05-31 14:04:00 51°14.664 2°45.044 22.1587 0.065296 0.357175 -2.871232
2007-05-31 14:05:00 51°14.691 2°45.402 22.1654 0.065296 0.357175 -2.871232
2007-05-31 14:06:00 51°14.718 2°45.756 22.1638 0.065193 0.356595 -2.871232
2007-05-31 14:07:00 51°14.752 2°46.108 22.1837 0.065193 0.356588 -2.871232
2007-05-31 14:08:00 51°14.785 2°46.464 22.1928 0.065193 0.356588 -2.871232
2007-05-31 14:09:00 51°14.831 2°46.82 22.1759 0.065193 0.356588 -2.871232
2007-05-31 14:10:00 51°14.876 2°47.178 22.1977 0.065296 0.357168 -2.871232
2007-05-31 14:11:00 51°14.92 2°47.538 22.1972 0.065296 0.357168 -2.871232
2007-05-31 14:12:00 51°14.964 2°47.896 22.1907 0.065193 0.356581 -2.871232
2007-05-31 14:13:00 51°15.008 2°48.254 22.1894 0.065193 0.356581 -2.871232
2007-05-31 14:14:00 51°15.051 2°48.609 22.2139 0.065296 0.357161 -2.871232
2007-05-31 14:15:00 51°15.093 2°48.966 22.2001 0.065296 0.357154 -2.871232
2007-05-31 14:16:00 51°15.135 2°49.322 22.2089 0.065296 0.357154 -2.871232
2007-05-31 14:17:00 51°15.179 2°49.678 22.21 0.065296 0.357147 -2.871232
2007-05-31 14:18:00 51°15.223 2°50.033 22.2179 0.065296 0.357147 -2.871232
2007-05-31 14:19:00 51°15.265 2°50.387 22.2411 0.065296 0.35714 -2.871232
2007-05-31 14:20:00 51°15.307 2°50.745 22.2476 0.065296 0.35714 -2.871232
2007-05-31 14:21:00 51°15.349 2°51.104 22.2381 0.065296 0.357133 -2.871232
2007-05-31 14:22:00 51°15.333 2°51.46 22.2061 0.065193 0.356552 -2.871232
2007-05-31 14:23:00 51°15.24 2°51.78 22.262 0.065296 0.357133 -2.871232
2007-05-31 14:24:00 51°15.138 2°52.095 22.2391 0.065296 0.357133 -2.871232
2007-05-31 14:25:00 51°15.032 2°52.407 22.2788 0.065296 0.357126 -2.871232
2007-05-31 14:26:00 51°14.936 2°52.726 22.2575 0.065296 0.357126 -2.871232
2007-05-31 14:27:00 51°14.846 2°53.051 22.3029 0.065296 0.357119 -2.871232
2007-05-31 14:28:00 51°14.759 2°53.377 22.2987 0.065296 0.357126 -2.871232
2007-05-31 14:29:00 51°14.711 2°53.724 22.321 0.065296 0.357119 -2.871232
2007-05-31 14:30:00 51°14.668 2°54.061 22.3001 0.065296 0.357119 -2.871232
2007-05-31 14:31:00 51°14.585 2°54.392 22.3078 0.065296 0.357119 -2.871232
2007-05-31 14:32:00 51°14.483 2°54.715 22.3347 0.065296 0.357119 -2.871232
2007-05-31 14:33:00 51°14.37 2°55.022 22.3156 0.065296 0.357112 -2.871232
2007-05-31 14:34:00 51°14.241 2°55.298 22.235 0.065296 0.357098 -2.871232
2007-05-31 14:35:00 51°14.097 2°55.439 22.3153 0.065296 0.357098 -2.871232
2007-05-31 14:36:00 51°13.984 2°55.518 22.348 0.065296 0.357098 -2.871232
2007-05-31 14:37:01 51°13.877 2°55.593 22.349 0.065296 0.357098 -2.871232
2007-05-31 14:38:00 51°13.766 2°55.692 22.3575 0.065296 0.357091 -2.871232
2007-05-31 14:39:01 51°13.686 2°55.839 22.3369 0.065296 0.357084 -2.871232
2007-05-31 14:40:01 51°13.636 2°55.955 22.3477 0.065296 0.35707 -2.871232
2007-05-31 14:41:01 51°13.611 2°56.042 22.3535 0.065296 0.357063 -2.871232
2007-05-31 14:42:01 51°13.6 2°56.084 22.3847 0.065296 0.357056 -2.871232